This is the latest recevied weather packets stored in our database for station/object IN3MWE-10. If no packets are shown the sender has not sent any weather packets the latest 10 day(s).
| Time | Temp. | Humidity | Pressure | Rain* | Wind** | Luminosity | Snow |
|---|---|---|---|---|---|---|---|
| 1777522815 | 9.44° C | 67% | 987.5 hPa | - | - | - | - |
| 1777521914 | 10° C | 67% | 987.3 hPa | - | - | - | - |
| 1777521014 | 10° C | 68% | 987.4 hPa | - | - | - | - |
| 1777520114 | 10° C | 68% | 987.2 hPa | - | - | - | - |
| 1777519213 | 10° C | 68% | 987.3 hPa | - | - | - | - |
| 1777518313 | 10° C | 68% | 987.3 hPa | - | - | - | - |
| 1777517427 | 10.56° C | 67% | 987.3 hPa | - | - | - | - |
| 1777516527 | 10.56° C | 67% | 987.1 hPa | - | - | - | - |
| 1777515627 | 10.56° C | 67% | 987.2 hPa | - | - | - | - |
| 1777514727 | 10.56° C | 68% | 987 hPa | - | - | - | - |
| 1777513826 | 10.56° C | 70% | 987.1 hPa | - | - | - | - |
| 1777512926 | 10.56° C | 71% | 987 hPa | - | - | - | - |
| 1777512026 | 10.56° C | 71% | 986.8 hPa | - | - | - | - |
| 1777511126 | 11.11° C | 69% | 987 hPa | - | - | - | - |
| 1777510226 | 11.11° C | 69% | 986.9 hPa | - | - | - | - |
| 1777509326 | 11.67° C | 68% | 986.7 hPa | - | - | - | - |
| 1777508426 | 11.67° C | 69% | 986.7 hPa | - | - | - | - |
| 1777507526 | 12.22° C | 70% | 986.5 hPa | - | - | - | - |
| 1777506625 | 12.22° C | 70% | 986.4 hPa | - | - | - | - |
| 1777505725 | 12.22° C | 71% | 986.3 hPa | - | - | - | - |
| 1777504825 | 12.22° C | 72% | 986.3 hPa | - | - | - | - |
| 1777503925 | 12.22° C | 73% | 986.1 hPa | - | - | - | - |
| 1777503025 | 12.22° C | 75% | 985.9 hPa | - | - | - | - |
| 1777502125 | 12.22° C | 76% | 985.8 hPa | - | - | - | - |
| 1777501225 | 12.78° C | 81% | 985.7 hPa | - | - | - | - |
* Rain since midnight (hover to see other rain measurements)
** Current wind speed in m/s (hover to see current wind gust speed)